Snowfall_Accumulation
0.2 0.2 0.1 0.1 0.3 0.3 0.2 0.1 0.1 0.1 0.1 0.1 0.1 0.1 0.1 0.1 0.1 0.2 0.2 0.3 0.7 0.7 0.7 0.6 0.9 0.8 0.3 0.3 0.2 0.3 0.3 0.3 0.3 0.3 0.5 0.8 1.3 1.5 1.9 2.2 2.5 3.1
0.1 0.1 0.1 0.1 0.1 0.1 0.1 0.1 0.1 0.2 0.2 0.1 0.1 0.1 0.1 0.1 0.1 0.1 0.2 0.3 0.3 0.3 0.3 0.6 0.4 0.8 0.7 0.7 0.6 0.7 0.7 0.6 0.7 0.4 0.6 0.7 0.9 1.0 1.2 1.3 1.7 2.0
0.1 0.1 0.1 0.1 0.1 0.1 0.1 0.1 0.2 0.1 0.1 0.1 0.1 0.1 0.2 0.1 0.2 0.2 0.3 0.4 0.5 0.8 0.6 1.0 0.8 0.8 1.1 0.9 0.4 0.6 0.7 0.8 0.9 0.8 1.0 0.9 0.8 0.9 1.0 1.0 1.3 1.7
0.1 0.0 0.1 0.1 0.1 0.2 0.1 0.1 0.1 0.2 0.1 0.1 0.1 0.2 0.2 0.3 0.3 0.4 0.5 0.6 0.7 0.7 0.8 0.8 0.8 0.8 1.0 0.6 1.5 1.3 1.3 1.1 1.0 1.0 1.0 1.3 1.2 1.1 1.0 1.0 1.2 1.4
0.1 0.1 0.1 0.1 0.1 0.1 0.2 0.1 0.2 0.1 0.2 0.2 0.3 0.2 0.4 0.4 0.6 0.8 0.9 1.0 0.9 1.0 1.8 1.3 1.1 1.0 0.8 0.7 0.8 1.2 0.8 0.8 0.6 0.7 1.0 1.3 1.2 1.3 1.2 1.4 1.5 1.7
0.1 0.1 0.1 0.1 0.1 0.3 0.4 0.3 0.2 0.4 0.9 0.6 0.5 0.4 0.6 0.6 0.8 0.8 0.9 1.1 1.1 1.1 1.2 2.8 1.6 1.3 1.6 0.9 0.8 0.7 0.8 0.7 0.8 0.7 0.8 0.9 0.9 0.9 1.2 1.5 1.8 1.8
0.2 0.1 0.1 0.2 0.2 0.3 0.3 0.4 0.6 0.9 0.6 0.7 1.1 1.2 0.6 0.6 0.6 0.8 1.0 1.1 1.2 1.2 1.2 1.7 1.3 1.5 1.0 1.0 1.2 1.1 1.1 1.0 1.0 1.0 1.1 1.0 1.0 1.0 1.0 1.5 1.7 1.8
0.2 0.2 0.3 0.2 0.3 0.4 0.4 0.6 1.3 1.3 1.2 0.9 1.4 0.6 1.0 0.8 0.9 1.0 1.1 1.2 1.4 1.4 1.3 1.3 1.9 1.7 1.3 1.4 1.5 1.3 1.3 1.3 1.6 1.9 1.5 1.5 1.3 1.4 1.2 1.3 1.7 2.1
0.3 0.3 0.4 0.5 0.6 0.7 1.1 1.3 1.0 1.1 1.1 1.0 0.9 0.9 1.0 1.2 1.3 1.4 1.4 1.5 1.6 1.5 1.5 1.8 1.9 2.0 1.7 2.2 2.5 2.5 2.3 2.0 1.9 1.9 1.9 1.9 1.8 1.7 1.6 1.6 2.0 2.4
0.7 0.7 0.7 0.8 1.2 1.0 0.8 0.8 1.6 0.9 1.0 1.0 1.2 1.3 1.4 1.3 1.4 1.4 1.6 1.6 1.9 2.0 2.4 1.9 2.1 1.8 2.0 2.4 2.5 2.4 2.9 3.2 2.7 2.5 2.5 2.7 2.9 2.6 2.4 2.6 2.8 3.1
0.7 0.7 0.8 0.9 0.9 0.9 0.9 0.9 1.5 1.0 1.0 1.8 1.5 1.9 2.7 1.9 1.8 1.5 1.8 2.0 2.0 1.8 1.7 1.6 1.7 1.7 1.9 2.0 2.1 2.2 2.5 2.7 2.9 3.1 3.2 3.2 3.2 3.4 3.9 4.1 4.1 4.0
0.7 0.7 0.7 0.8 0.9 1.2 1.0 0.9 1.0 1.2 1.4 1.8 2.5 1.6 2.1 1.9 2.2 2.1 2.2 2.1 2.0 2.0 1.9 2.3 2.0 2.0 2.1 2.5 2.1 1.9 2.0 2.2 2.5 2.6 2.6 2.8 3.0 3.3 3.4 3.9 4.5 4.4
0.6 0.7 0.7 0.8 0.9 1.0 1.1 1.3 1.3 1.2 1.4 1.7 1.8 2.2 2.7 2.8 2.9 2.5 2.4 2.3 2.3 2.3 2.3 2.3 2.3 2.1 2.2 2.1 2.1 2.2 2.3 2.5 2.5 2.5 2.4 2.4 2.5 2.7 2.7 3.1 3.4 3.7
0.8 0.8 0.8 0.9 1.1 1.9 1.3 1.4 1.5 1.7 1.9 1.9 2.4 2.7 3.3 3.3 3.5 2.9 2.6 2.5 2.7 2.8 2.5 2.4 2.6 2.6 2.5 2.4 2.4 2.5 2.7 3.0 2.7 3.1 3.2 3.1 3.0 2.8 2.7 3.0 2.9 3.0
0.6 0.7 0.8 1.3 1.2 1.6 1.7 1.8 1.9 2.3 2.1 2.5 3.0 3.6 3.2 3.3 3.5 3.3 3.3 3.5 2.9 2.9 3.2 2.7 3.1 3.0 2.7 2.8 3.1 3.2 3.5 4.6 4.5 4.9 4.9 5.0 4.6 4.1 3.7 3.5 3.3 3.2
0.8 1.1 1.5 2.0 2.0 2.3 2.0 1.9 1.9 2.2 2.8 2.7 3.4 3.6 3.7 3.1 3.4 3.6 4.1 5.5 4.0 3.7 3.5 3.9 3.6 3.4 3.0 3.0 4.1 6.7 8.6 9.4 9.9 9.5 8.9 8.5 8.1 7.3 6.1 5.0 4.4 3.8
1.3 1.8 1.8 2.0 2.0 1.9 2.0 2.3 2.5 2.7 3.0 3.5 3.6 3.7 4.1 4.7 4.4 5.1 4.9 4.8 4.6 4.7 5.2 4.9 4.7 4.0 3.4 4.5 8.4 11.2 13.1 14.6 13.5 11.6 9.9 9.4 9.0 8.4 7.6 5.7 4.6 4.0
1.7 1.7 1.9 2.1 2.2 2.4 2.6 3.0 3.0 3.5 3.8 3.9 4.8 4.4 4.9 4.9 6.0 6.3 5.1 4.8 5.1 5.3 5.7 5.4 5.4 4.2 4.5 8.3 10.4 14.2 19.1 18.5 16.5 14.5 12.3 10.8 9.6 9.0 8.0 7.0 6.0 5.2
1.9 2.3 2.6 2.6 2.8 3.6 3.1 3.6 4.0 4.3 4.4 4.7 5.0 5.1 5.6 6.5 7.1 6.1 6.0 6.1 6.2 7.1 6.5 6.0 6.1 4.8 5.8 9.2 11.5 16.5 21.1 23.6 19.2 15.6 13.3 10.9 9.0 7.9 7.2 6.5 5.9 6.4
2.3 2.8 3.2 3.2 3.4 3.4 3.7 4.1 4.6 5.1 5.0 5.5 5.7 5.9 6.8 7.3 6.9 7.3 7.1 7.8 8.1 8.4 8.1 7.7 7.2 6.1 6.4 11.0 15.4 18.4 23.4 26.6 20.8 17.4 14.7 12.1 9.8 8.2 7.1 6.5 6.1 6.3
2.9 3.6 4.2 3.7 3.6 3.6 4.0 4.5 5.0 5.1 5.3 5.6 6.2 6.9 7.8 8.5 8.4 8.5 8.6 8.8 9.0 10.0 9.9 9.8 8.2 6.7 9.4 14.5 17.0 19.6 23.9 28.7 23.3 19.4 15.7 12.3 9.8 8.5 8.1 7.4 6.6 6.1
3.3 3.8 3.9 4.0 4.0 4.4 5.2 5.5 5.3 5.5 6.3 5.9 6.6 7.0 7.3 7.7 7.1 7.2 7.5 7.6 7.3 8.0 9.1 9.1 7.0 6.5 10.7 15.0 16.8 20.1 26.2 24.6 23.7 19.2 15.5 12.4 10.1 8.6 7.8 6.7 6.0 6.2
3.8 4.2 4.5 4.4 4.6 5.2 5.4 5.5 5.6 5.4 5.3 5.4 6.6 6.0 5.8 5.6 5.7 5.4 5.6 6.5 6.7 6.9 7.5 7.0 6.4 6.2 8.3 13.7 15.3 19.2 27.9 29.1 25.3 19.6 15.4 12.7 10.0 8.5 7.7 6.9 6.2 6.2
3.7 4.3 5.2 5.1 5.3 5.6 5.3 4.8 4.5 4.7 5.1 5.0 6.2 6.2 6.1 5.7 5.4 5.7 5.6 6.0 6.9 7.1 7.1 7.5 6.6 5.7 7.2 11.3 14.2 18.2 25.1 26.1 23.8 21.4 16.8 13.3 11.3 9.5 8.7 8.1 6.5 6.5
4.1 4.3 4.9 5.3 5.7 5.1 4.8 5.0 4.8 5.0 4.9 5.2 5.8 5.9 5.8 5.2 5.4 6.0 5.8 6.0 6.2 6.3 6.2 7.2 7.0 5.9 5.9 9.8 12.8 19.1 22.6 22.8 21.6 20.1 18.4 14.7 13.0 11.9 9.6 8.0 6.7 5.8
4.0 4.4 4.6 5.2 5.5 4.9 4.4 4.6 4.8 5.1 4.9 5.5 5.4 5.1 5.3 5.0 5.1 5.3 5.6 5.6 5.7 6.6 7.1 7.0 7.1 6.5 6.4 7.1 14.7 21.2 21.1 19.5 19.5 20.0 19.7 17.0 14.9 13.0 12.6 10.8 8.3 7.3